QPF
0.01 0.01 0.01 0.02 0.02 0.02 0.04 0.05 0.05 0.07 0.11 0.11 0.10 0.10 0.10 0.11 0.11 0.11 0.08 0.05 0.05 0.05 0.08 0.10 0.09 0.10 0.10 0.10 0.08 0.07 0.07 0.07 0.06 0.04 0.03 0.03 0.02 0.03 0.04 0.03 0.05 0.05 0.04
0.01 0.03 0.03 0.04 0.04 0.05 0.08 0.10 0.08 0.11 0.13 0.14 0.11 0.12 0.11 0.13 0.13 0.11 0.09 0.09 0.06 0.05 0.07 0.09 0.10 0.10 0.10 0.11 0.10 0.09 0.08 0.07 0.06 0.04 0.03 0.03 0.02 0.03 0.04 0.04 0.03 0.03 0.03
0.05 0.07 0.07 0.07 0.08 0.11 0.15 0.14 0.13 0.14 0.12 0.13 0.13 0.15 0.13 0.13 0.11 0.11 0.10 0.09 0.07 0.04 0.03 0.05 0.08 0.09 0.09 0.11 0.11 0.09 0.07 0.05 0.05 0.04 0.04 0.03 0.03 0.03 0.03 0.03 0.04 0.03 0.02
0.13 0.13 0.11 0.11 0.15 0.19 0.19 0.17 0.15 0.16 0.17 0.18 0.16 0.15 0.14 0.12 0.08 0.09 0.09 0.08 0.09 0.05 0.04 0.04 0.05 0.06 0.07 0.09 0.10 0.09 0.08 0.06 0.05 0.05 0.05 0.05 0.04 0.03 0.02 0.02 0.03 0.03 0.01
0.15 0.15 0.12 0.12 0.15 0.18 0.18 0.16 0.19 0.21 0.22 0.22 0.21 0.16 0.13 0.10 0.08 0.07 0.06 0.07 0.08 0.06 0.04 0.03 0.02 0.03 0.04 0.06 0.07 0.09 0.10 0.08 0.06 0.06 0.07 0.06 0.05 0.03 0.02 0.02 0.02 0.02 0.01
0.13 0.14 0.11 0.09 0.15 0.17 0.14 0.15 0.18 0.23 0.24 0.25 0.23 0.15 0.10 0.07 0.07 0.06 0.05 0.04 0.04 0.03 0.03 0.04 0.04 0.02 0.02 0.03 0.05 0.08 0.11 0.11 0.09 0.08 0.07 0.07 0.06 0.05 0.03 0.02 0.02 0.01 0.01
0.09 0.11 0.11 0.13 0.16 0.16 0.14 0.19 0.23 0.23 0.21 0.27 0.25 0.16 0.11 0.08 0.07 0.05 0.05 0.04 0.03 0.03 0.03 0.03 0.03 0.04 0.03 0.02 0.03 0.06 0.10 0.12 0.11 0.08 0.07 0.07 0.06 0.05 0.04 0.03 0.02 0.01 0.01
0.06 0.07 0.09 0.09 0.12 0.13 0.14 0.17 0.20 0.20 0.17 0.25 0.27 0.24 0.16 0.12 0.08 0.06 0.04 0.04 0.03 0.03 0.02 0.02 0.03 0.04 0.03 0.04 0.04 0.03 0.07 0.11 0.12 0.10 0.08 0.06 0.05 0.04 0.03 0.03 0.03 0.02 0.01
0.03 0.04 0.04 0.05 0.06 0.09 0.09 0.11 0.15 0.18 0.17 0.19 0.24 0.29 0.23 0.15 0.14 0.09 0.07 0.04 0.03 0.03 0.02 0.03 0.02 0.03 0.04 0.05 0.05 0.05 0.05 0.07 0.09 0.11 0.10 0.07 0.04 0.03 0.03 0.03 0.04 0.03 0.02
0.00 0.01 0.01 0.01 0.02 0.04 0.05 0.06 0.10 0.13 0.17 0.16 0.18 0.19 0.21 0.24 0.22 0.14 0.08 0.06 0.05 0.04 0.03 0.03 0.03 0.04 0.05 0.06 0.07 0.07 0.07 0.06 0.06 0.08 0.08 0.07 0.05 0.03 0.03 0.04 0.07 0.08 0.06
0.00 0.00 0.00 0.00 0.01 0.02 0.03 0.03 0.04 0.07 0.09 0.11 0.13 0.13 0.13 0.15 0.14 0.12 0.08 0.06 0.06 0.05 0.04 0.04 0.04 0.05 0.06 0.08 0.10 0.07 0.06 0.07 0.07 0.06 0.06 0.06 0.05 0.04 0.03 0.04 0.07 0.10 0.11
0.00 0.00 0.00 0.00 0.01 0.01 0.01 0.01 0.02 0.03 0.05 0.06 0.07 0.09 0.09 0.09 0.08 0.08 0.08 0.08 0.08 0.08 0.06 0.04 0.04 0.05 0.06 0.08 0.05 0.04 0.05 0.06 0.06 0.06 0.06 0.06 0.06 0.06 0.06 0.05 0.06 0.08 0.11
0.00 0.00 0.00 0.00 0.01 0.01 0.01 0.01 0.01 0.02 0.03 0.04 0.05 0.06 0.08 0.08 0.08 0.09 0.11 0.09 0.09 0.08 0.07 0.05 0.04 0.05 0.06 0.08 0.08 0.05 0.05 0.05 0.06 0.07 0.07 0.07 0.06 0.05 0.04 0.03 0.03 0.04 0.05
0.00 0.00 0.00 0.00 0.00 0.00 0.01 0.01 0.01 0.01 0.02 0.03 0.03 0.06 0.08 0.08 0.09 0.09 0.10 0.10 0.09 0.08 0.08 0.05 0.04 0.05 0.07 0.10 0.11 0.09 0.07 0.05 0.05 0.05 0.05 0.05 0.05 0.04 0.03 0.03 0.03 0.03 0.03
0.00 0.00 0.00 0.00 0.00 0.00 0.01 0.01 0.02 0.02 0.03 0.04 0.04 0.06 0.08 0.08 0.11 0.11 0.10 0.11 0.12 0.11 0.09 0.07 0.06 0.05 0.07 0.10 0.11 0.09 0.09 0.07 0.06 0.04 0.04 0.03 0.02 0.02 0.02 0.02 0.02 0.02 0.02
0.00 0.00 0.00 0.00 0.00 0.00 0.01 0.01 0.02 0.02 0.03 0.04 0.05 0.06 0.07 0.08 0.10 0.11 0.11 0.11 0.13 0.14 0.12 0.09 0.08 0.08 0.09 0.09 0.11 0.10 0.08 0.07 0.06 0.04 0.04 0.03 0.02 0.01 0.01 0.01 0.01 0.01 0.02
0.01 0.00 0.00 0.00 0.00 0.00 0.01 0.01 0.02 0.02 0.03 0.03 0.04 0.05 0.06 0.08 0.10 0.11 0.12 0.12 0.14 0.14 0.12 0.11 0.11 0.11 0.13 0.13 0.13 0.12 0.09 0.07 0.05 0.04 0.03 0.03 0.02 0.01 0.01 0.00 0.00 0.00 0.00
0.01 0.00 0.00 0.00 0.00 0.00 0.01 0.01 0.01 0.02 0.02 0.03 0.04 0.05 0.06 0.08 0.11 0.12 0.12 0.12 0.14 0.15 0.15 0.15 0.14 0.14 0.14 0.12 0.12 0.10 0.09 0.08 0.05 0.04 0.03 0.02 0.02 0.01 0.00 0.00 0.00 0.00 0.00
0.01 0.00 0.00 0.00 0.00 0.00 0.00 0.00 0.01 0.01 0.02 0.03 0.04 0.05 0.06 0.09 0.11 0.13 0.15 0.15 0.16 0.17 0.20 0.19 0.17 0.14 0.12 0.10 0.08 0.08 0.08 0.07 0.05 0.03 0.02 0.01 0.01 0.00 0.00 0.00 0.00 0.00 0.00
0.01 0.01 0.01 0.00 0.00 0.00 0.00 0.00 0.01 0.01 0.01 0.03 0.06 0.07 0.07 0.08 0.12 0.18 0.21 0.23 0.22 0.22 0.22 0.23 0.23 0.19 0.15 0.10 0.07 0.07 0.07 0.05 0.04 0.03 0.02 0.01 0.00 0.00 0.00 0.00 0.00 0.00 0.00
0.01 0.01 0.01 0.00 0.00 0.00 0.00 0.00 0.01 0.01 0.02 0.02 0.04 0.06 0.08 0.09 0.11 0.14 0.19 0.23 0.25 0.26 0.23 0.20 0.20 0.20 0.14 0.10 0.07 0.05 0.04 0.03 0.02 0.02 0.02 0.01 0.01 0.00 0.00 0.00 0.00 0.00 0.00
0.03 0.03 0.02 0.01 0.01 0.00 0.00 0.01 0.01 0.01 0.02 0.03 0.05 0.06 0.06 0.08 0.08 0.10 0.12 0.16 0.22 0.24 0.22 0.17 0.14 0.12 0.11 0.08 0.05 0.04 0.02 0.01 0.01 0.01 0.01 0.01 0.01 0.01 0.01 0.00 0.00 0.00 0.00
0.05 0.04 0.04 0.03 0.02 0.01 0.00 0.00 0.01 0.01 0.01 0.02 0.04 0.06 0.06 0.06 0.07 0.07 0.08 0.10 0.13 0.17 0.17 0.13 0.09 0.07 0.06 0.04 0.04 0.03 0.02 0.01 0.01 0.00 0.00 0.00 0.01 0.01 0.00 0.00 0.00 0.00 0.00
0.05 0.05 0.05 0.04 0.03 0.02 0.01 0.01 0.01 0.01 0.02 0.03 0.03 0.04 0.05 0.05 0.06 0.06 0.05 0.05 0.06 0.09 0.11 0.11 0.08 0.05 0.04 0.03 0.02 0.02 0.01 0.01 0.00 0.00 0.00 0.00 0.00 0.00 0.00 0.00 0.00 0.00 0.00
0.06 0.06 0.06 0.05 0.04 0.03 0.01 0.01 0.02 0.02 0.02 0.04 0.05 0.04 0.04 0.04 0.04 0.04 0.04 0.04 0.03 0.04 0.06 0.07 0.06 0.05 0.03 0.02 0.01 0.01 0.00 0.00 0.00 0.00 0.00 0.00 0.00 0.00 0.00 0.00 0.00 0.00 0.00
0.09 0.10 0.09 0.08 0.07 0.06 0.03 0.02 0.02 0.03 0.03 0.05 0.05 0.04 0.05 0.05 0.03 0.03 0.04 0.03 0.03 0.02 0.02 0.02 0.01 0.01 0.01 0.01 0.00 0.00 0.00 0.00 0.00 0.00 0.00 0.00 0.00 0.00 0.00 0.00 0.00 0.00 0.00
MSLP
1012.34 1012.29 1012.20 1012.09 1011.99 1011.94 1011.94 1012.01 1012.13 1012.28 1012.42 1012.52 1012.55 1012.51 1012.41 1012.29 1012.18 1012.11 1012.12 1012.19 1012.33 1012.50 1012.68 1012.84 1012.97 1013.07 1013.16 1013.24 1013.35 1013.50 1013.70 1013.94 1014.23 1014.53 1014.85 1015.17 1015.48 1015.80 1016.11 1016.43 1016.76 1017.09 1017.43
1011.96 1011.90 1011.82 1011.72 1011.64 1011.59 1011.59 1011.65 1011.77 1011.91 1012.04 1012.14 1012.17 1012.14 1012.04 1011.90 1011.76 1011.66 1011.61 1011.63 1011.72 1011.85 1012.01 1012.17 1012.31 1012.44 1012.55 1012.66 1012.79 1012.94 1013.14 1013.38 1013.66 1013.96 1014.27 1014.59 1014.91 1015.24 1015.56 1015.89 1016.23 1016.57 1016.92
1011.63 1011.57 1011.49 1011.41 1011.32 1011.27 1011.27 1011.32 1011.42 1011.54 1011.67 1011.76 1011.80 1011.76 1011.66 1011.51 1011.35 1011.20 1011.11 1011.08 1011.12 1011.21 1011.34 1011.50 1011.64 1011.79 1011.92 1012.05 1012.19 1012.36 1012.56 1012.79 1013.06 1013.35 1013.66 1013.98 1014.30 1014.62 1014.94 1015.27 1015.61 1015.96 1016.31
1011.35 1011.29 1011.21 1011.12 1011.03 1010.96 1010.93 1010.96 1011.03 1011.13 1011.24 1011.32 1011.36 1011.33 1011.23 1011.09 1010.91 1010.75 1010.62 1010.55 1010.54 1010.60 1010.70 1010.82 1010.96 1011.10 1011.24 1011.37 1011.52 1011.69 1011.89 1012.12 1012.38 1012.67 1012.98 1013.29 1013.62 1013.94 1014.26 1014.59 1014.93 1015.28 1015.64
1011.14 1011.07 1010.98 1010.87 1010.75 1010.64 1010.57 1010.54 1010.57 1010.63 1010.71 1010.79 1010.83 1010.81 1010.73 1010.60 1010.44 1010.28 1010.14 1010.04 1010.00 1010.01 1010.07 1010.16 1010.27 1010.38 1010.50 1010.62 1010.75 1010.91 1011.10 1011.32 1011.59 1011.89 1012.21 1012.54 1012.87 1013.20 1013.53 1013.87 1014.21 1014.56 1014.92
1011.01 1010.92 1010.80 1010.66 1010.49 1010.33 1010.19 1010.10 1010.06 1010.07 1010.11 1010.16 1010.20 1010.20 1010.15 1010.06 1009.93 1009.79 1009.66 1009.55 1009.49 1009.47 1009.48 1009.52 1009.58 1009.64 1009.70 1009.78 1009.88 1010.01 1010.19 1010.41 1010.69 1011.01 1011.35 1011.72 1012.08 1012.44 1012.79 1013.14 1013.48 1013.84 1014.21
1010.96 1010.85 1010.71 1010.51 1010.29 1010.06 1009.85 1009.67 1009.55 1009.49 1009.48 1009.50 1009.53 1009.54 1009.52 1009.47 1009.39 1009.29 1009.18 1009.09 1009.02 1008.97 1008.94 1008.92 1008.91 1008.90 1008.90 1008.91 1008.95 1009.05 1009.21 1009.43 1009.73 1010.08 1010.47 1010.88 1011.29 1011.69 1012.08 1012.45 1012.81 1013.17 1013.54
1011.00 1010.88 1010.70 1010.46 1010.18 1009.88 1009.58 1009.32 1009.11 1008.97 1008.89 1008.86 1008.87 1008.88 1008.88 1008.87 1008.83 1008.78 1008.71 1008.65 1008.59 1008.52 1008.46 1008.39 1008.31 1008.22 1008.14 1008.08 1008.06 1008.11 1008.24 1008.47 1008.78 1009.17 1009.61 1010.08 1010.55 1011.01 1011.44 1011.84 1012.22 1012.59 1012.96
1011.11 1010.97 1010.77 1010.50 1010.18 1009.81 1009.44 1009.10 1008.80 1008.57 1008.41 1008.32 1008.27 1008.26 1008.26 1008.26 1008.26 1008.25 1008.24 1008.21 1008.17 1008.12 1008.05 1007.94 1007.81 1007.66 1007.50 1007.37 1007.29 1007.30 1007.40 1007.62 1007.96 1008.38 1008.88 1009.41 1009.95 1010.46 1010.93 1011.36 1011.75 1012.12 1012.48
1011.23 1011.09 1010.88 1010.59 1010.24 1009.84 1009.42 1009.01 1008.63 1008.31 1008.07 1007.88 1007.76 1007.69 1007.66 1007.65 1007.66 1007.69 1007.72 1007.75 1007.76 1007.75 1007.69 1007.60 1007.45 1007.27 1007.07 1006.88 1006.76 1006.72 1006.80 1007.01 1007.35 1007.81 1008.35 1008.94 1009.53 1010.09 1010.60 1011.05 1011.45 1011.80 1012.14
1011.29 1011.15 1010.95 1010.66 1010.31 1009.90 1009.46 1009.00 1008.57 1008.17 1007.82 1007.54 1007.32 1007.16 1007.05 1007.00 1007.00 1007.05 1007.12 1007.21 1007.30 1007.37 1007.38 1007.34 1007.23 1007.06 1006.86 1006.66 1006.51 1006.44 1006.49 1006.69 1007.04 1007.51 1008.08 1008.70 1009.33 1009.92 1010.46 1010.92 1011.31 1011.65 1011.95
1011.22 1011.09 1010.90 1010.63 1010.30 1009.91 1009.47 1009.00 1008.53 1008.06 1007.62 1007.22 1006.88 1006.61 1006.40 1006.28 1006.24 1006.29 1006.41 1006.57 1006.76 1006.94 1007.08 1007.15 1007.13 1007.04 1006.88 1006.70 1006.55 1006.48 1006.52 1006.70 1007.03 1007.51 1008.08 1008.72 1009.36 1009.97 1010.52 1010.98 1011.36 1011.67 1011.93
1010.98 1010.84 1010.66 1010.43 1010.14 1009.79 1009.38 1008.93 1008.43 1007.91 1007.39 1006.88 1006.40 1005.99 1005.67 1005.45 1005.36 1005.40 1005.56 1005.81 1006.12 1006.45 1006.75 1006.98 1007.11 1007.14 1007.08 1006.97 1006.86 1006.79 1006.83 1006.99 1007.31 1007.77 1008.33 1008.96 1009.60 1010.21 1010.75 1011.20 1011.56 1011.84 1012.06
1010.54 1010.39 1010.23 1010.03 1009.79 1009.49 1009.14 1008.71 1008.22 1007.66 1007.07 1006.45 1005.85 1005.31 1004.86 1004.54 1004.38 1004.40 1004.60 1004.94 1005.39 1005.88 1006.37 1006.80 1007.12 1007.31 1007.39 1007.38 1007.33 1007.30 1007.34 1007.49 1007.79 1008.22 1008.75 1009.36 1009.99 1010.59 1011.12 1011.56 1011.90 1012.16 1012.35
1009.94 1009.77 1009.61 1009.44 1009.25 1009.02 1008.72 1008.34 1007.87 1007.30 1006.65 1005.95 1005.24 1004.58 1004.00 1003.58 1003.36 1003.37 1003.59 1004.02 1004.60 1005.27 1005.95 1006.58 1007.11 1007.49 1007.72 1007.83 1007.87 1007.89 1007.95 1008.09 1008.36 1008.76 1009.26 1009.84 1010.45 1011.04 1011.56 1012.00 1012.34 1012.58 1012.74
1009.24 1009.04 1008.88 1008.74 1008.60 1008.43 1008.19 1007.87 1007.43 1006.86 1006.19 1005.43 1004.64 1003.87 1003.21 1002.70 1002.42 1002.41 1002.66 1003.15 1003.85 1004.66 1005.52 1006.35 1007.06 1007.62 1008.01 1008.25 1008.37 1008.45 1008.53 1008.67 1008.92 1009.29 1009.76 1010.32 1010.91 1011.49 1012.01 1012.46 1012.80 1013.04 1013.20
1008.54 1008.31 1008.14 1008.02 1007.92 1007.80 1007.62 1007.36 1006.96 1006.43 1005.75 1004.97 1004.14 1003.32 1002.59 1002.03 1001.70 1001.67 1001.93 1002.47 1003.24 1004.17 1005.16 1006.12 1006.99 1007.69 1008.21 1008.55 1008.76 1008.88 1008.99 1009.14 1009.37 1009.71 1010.17 1010.70 1011.28 1011.86 1012.40 1012.86 1013.22 1013.48 1013.65
1007.92 1007.66 1007.49 1007.38 1007.30 1007.23 1007.11 1006.90 1006.56 1006.07 1005.43 1004.67 1003.84 1003.01 1002.26 1001.67 1001.33 1001.28 1001.54 1002.09 1002.89 1003.87 1004.92 1005.97 1006.92 1007.72 1008.32 1008.74 1009.00 1009.17 1009.29 1009.44 1009.67 1009.99 1010.43 1010.95 1011.53 1012.12 1012.68 1013.17 1013.56 1013.85 1014.04
1007.41 1007.14 1006.96 1006.86 1006.81 1006.77 1006.70 1006.54 1006.27 1005.84 1005.27 1004.57 1003.79 1003.00 1002.28 1001.71 1001.37 1001.31 1001.55 1002.09 1002.87 1003.84 1004.89 1005.95 1006.92 1007.74 1008.38 1008.83 1009.12 1009.31 1009.44 1009.59 1009.81 1010.12 1010.54 1011.06 1011.64 1012.24 1012.82 1013.34 1013.76 1014.09 1014.31
1007.01 1006.75 1006.57 1006.48 1006.44 1006.43 1006.39 1006.29 1006.09 1005.75 1005.27 1004.68 1004.00 1003.30 1002.65 1002.14 1001.82 1001.76 1001.98 1002.48 1003.21 1004.10 1005.10 1006.09 1007.02 1007.81 1008.43 1008.87 1009.17 1009.35 1009.49 1009.63 1009.84 1010.14 1010.54 1011.05 1011.62 1012.23 1012.82 1013.37 1013.82 1014.18 1014.43
1006.69 1006.43 1006.26 1006.17 1006.14 1006.15 1006.15 1006.10 1005.98 1005.74 1005.39 1004.93 1004.39 1003.83 1003.30 1002.88 1002.62 1002.58 1002.78 1003.21 1003.85 1004.65 1005.53 1006.42 1007.25 1007.96 1008.52 1008.92 1009.19 1009.36 1009.49 1009.62 1009.81 1010.10 1010.48 1010.97 1011.53 1012.13 1012.72 1013.28 1013.75 1014.13 1014.41
1006.37 1006.13 1005.96 1005.87 1005.84 1005.86 1005.89 1005.90 1005.85 1005.73 1005.52 1005.23 1004.87 1004.47 1004.10 1003.80 1003.63 1003.62 1003.80 1004.18 1004.72 1005.39 1006.14 1006.89 1007.59 1008.20 1008.68 1009.02 1009.26 1009.40 1009.51 1009.63 1009.81 1010.07 1010.43 1010.88 1011.41 1011.98 1012.56 1013.11 1013.58 1013.97 1014.25
1006.00 1005.76 1005.60 1005.50 1005.47 1005.49 1005.54 1005.60 1005.65 1005.65 1005.59 1005.47 1005.30 1005.10 1004.91 1004.75 1004.68 1004.73 1004.91 1005.24 1005.69 1006.24 1006.84 1007.46 1008.03 1008.52 1008.92 1009.20 1009.39 1009.52 1009.61 1009.72 1009.88 1010.11 1010.43 1010.84 1011.32 1011.85 1012.39 1012.90 1013.35 1013.73 1014.01
1005.53 1005.30 1005.13 1005.02 1004.98 1005.00 1005.07 1005.18 1005.31 1005.43 1005.52 1005.58 1005.61 1005.60 1005.59 1005.59 1005.64 1005.75 1005.95 1006.24 1006.62 1007.06 1007.55 1008.04 1008.49 1008.89 1009.21 1009.45 1009.61 1009.72 1009.81 1009.91 1010.04 1010.25 1010.52 1010.88 1011.30 1011.76 1012.24 1012.69 1013.10 1013.44 1013.71
1004.98 1004.74 1004.56 1004.43 1004.38 1004.40 1004.49 1004.64 1004.84 1005.07 1005.31 1005.53 1005.73 1005.91 1006.07 1006.22 1006.38 1006.56 1006.79 1007.07 1007.40 1007.77 1008.16 1008.56 1008.93 1009.26 1009.53 1009.74 1009.89 1010.00 1010.09 1010.18 1010.30 1010.48 1010.71 1011.00 1011.35 1011.74 1012.13 1012.52 1012.87 1013.16 1013.39
1004.37 1004.12 1003.92 1003.78 1003.72 1003.74 1003.86 1004.05 1004.32 1004.64 1004.99 1005.35 1005.70 1006.03 1006.33 1006.61 1006.86 1007.12 1007.38 1007.66 1007.96 1008.28 1008.62 1008.96 1009.29 1009.58 1009.83 1010.03 1010.19 1010.31 1010.41 1010.51 1010.62 1010.77 1010.96 1011.20 1011.47 1011.77 1012.09 1012.39 1012.67 1012.91 1013.09
Thickness
5767 5767 5765 5763 5763 5763 5763 5761 5762 5762 5761 5761 5761 5761 5761 5760 5760 5760 5760 5758 5756 5755 5754 5753 5752 5751 5750 5749 5748 5748 5747 5746 5744 5743 5742 5740 5738 5737 5735 5734 5733 5731 5730
5763 5761 5760 5759 5759 5757 5757 5757 5757 5756 5756 5756 5757 5757 5756 5757 5756 5755 5756 5757 5755 5754 5753 5752 5752 5751 5750 5749 5748 5748 5747 5746 5745 5744 5743 5741 5740 5738 5736 5735 5733 5732 5731
5757 5755 5755 5755 5754 5752 5750 5749 5749 5750 5750 5751 5751 5752 5752 5752 5752 5752 5752 5753 5754 5754 5753 5752 5751 5750 5749 5748 5748 5747 5747 5746 5745 5744 5743 5742 5740 5739 5737 5736 5734 5733 5732
5752 5751 5751 5752 5750 5748 5746 5745 5744 5744 5745 5743 5744 5746 5747 5748 5748 5748 5748 5749 5750 5752 5754 5752 5751 5749 5749 5748 5747 5747 5746 5746 5745 5744 5742 5741 5740 5739 5737 5736 5735 5734 5732
5748 5747 5747 5747 5745 5744 5743 5741 5742 5739 5738 5737 5738 5740 5741 5742 5744 5745 5745 5746 5746 5747 5749 5751 5750 5748 5748 5747 5746 5746 5745 5744 5743 5743 5742 5740 5739 5738 5737 5736 5735 5734 5733
5743 5741 5742 5742 5740 5738 5737 5736 5734 5734 5733 5733 5733 5735 5736 5738 5739 5740 5740 5743 5745 5746 5747 5748 5748 5749 5747 5746 5745 5744 5744 5743 5742 5741 5740 5739 5738 5737 5737 5736 5735 5734 5733
5737 5735 5736 5736 5734 5732 5732 5731 5730 5729 5728 5728 5724 5725 5730 5734 5735 5736 5737 5739 5742 5744 5744 5744 5744 5746 5747 5745 5744 5744 5743 5742 5740 5739 5738 5737 5736 5736 5735 5735 5734 5734 5733
5731 5732 5730 5729 5729 5726 5725 5725 5723 5722 5724 5724 5718 5715 5716 5723 5730 5734 5734 5735 5737 5740 5741 5742 5742 5741 5741 5743 5745 5742 5741 5740 5739 5737 5736 5734 5734 5734 5734 5734 5733 5733 5732
5726 5724 5723 5722 5721 5720 5721 5719 5718 5715 5715 5718 5716 5711 5707 5712 5721 5726 5729 5730 5731 5732 5736 5738 5739 5739 5738 5739 5740 5739 5738 5737 5736 5735 5733 5732 5731 5731 5732 5732 5732 5731 5731
5720 5718 5716 5714 5713 5714 5713 5713 5715 5711 5709 5710 5712 5711 5710 5711 5707 5711 5719 5725 5727 5727 5729 5733 5736 5736 5735 5735 5735 5734 5734 5732 5731 5730 5729 5728 5728 5728 5729 5729 5729 5729 5729
5714 5712 5710 5708 5706 5706 5706 5704 5704 5703 5704 5704 5705 5706 5706 5706 5707 5704 5707 5715 5719 5723 5725 5726 5728 5730 5732 5730 5730 5730 5728 5727 5726 5726 5725 5724 5723 5723 5724 5725 5726 5727 5727
5710 5708 5705 5702 5700 5700 5698 5697 5697 5697 5696 5697 5698 5699 5700 5701 5704 5704 5704 5707 5709 5714 5718 5720 5721 5723 5724 5724 5724 5723 5721 5720 5720 5719 5719 5718 5717 5717 5718 5720 5720 5722 5723
5705 5702 5700 5696 5695 5694 5692 5691 5690 5690 5690 5690 5692 5695 5697 5699 5701 5702 5700 5702 5703 5707 5709 5711 5714 5715 5717 5717 5715 5713 5712 5711 5711 5711 5710 5710 5709 5710 5711 5712 5713 5715 5716
5701 5697 5693 5691 5690 5688 5687 5686 5686 5686 5686 5686 5688 5689 5691 5695 5697 5698 5698 5698 5697 5699 5700 5702 5706 5707 5708 5708 5705 5704 5703 5702 5702 5701 5701 5700 5700 5700 5701 5702 5704 5705 5707
5695 5692 5688 5687 5685 5684 5682 5680 5682 5680 5681 5681 5683 5685 5686 5691 5693 5695 5696 5696 5693 5691 5692 5695 5696 5698 5698 5697 5695 5696 5694 5691 5691 5691 5691 5691 5690 5691 5692 5692 5694 5695 5697
5687 5685 5683 5681 5680 5679 5677 5675 5676 5677 5675 5675 5676 5678 5680 5685 5687 5689 5691 5693 5693 5690 5688 5689 5687 5689 5688 5688 5686 5687 5684 5681 5681 5681 5681 5681 5680 5681 5681 5682 5683 5685 5686
5681 5679 5677 5676 5674 5673 5672 5671 5671 5670 5670 5671 5671 5673 5675 5677 5680 5683 5685 5687 5687 5685 5680 5677 5677 5677 5676 5677 5677 5676 5675 5674 5671 5671 5671 5670 5670 5670 5671 5672 5673 5674 5676
5675 5673 5672 5670 5669 5668 5667 5665 5664 5664 5664 5664 5665 5666 5668 5671 5673 5676 5678 5679 5679 5679 5674 5667 5665 5665 5665 5667 5667 5667 5667 5667 5663 5660 5661 5661 5660 5660 5661 5662 5663 5665 5666
5667 5666 5665 5664 5663 5662 5661 5659 5658 5657 5657 5657 5658 5659 5660 5662 5664 5667 5669 5670 5671 5671 5667 5662 5657 5656 5655 5657 5657 5657 5657 5656 5656 5652 5651 5651 5651 5651 5652 5653 5654 5655 5657
5657 5658 5658 5657 5657 5656 5655 5653 5652 5650 5650 5650 5651 5651 5652 5653 5655 5657 5659 5660 5661 5660 5657 5653 5649 5647 5646 5647 5648 5647 5645 5646 5647 5647 5644 5643 5642 5642 5643 5644 5645 5646 5648
5647 5648 5649 5650 5650 5649 5649 5647 5644 5644 5643 5643 5643 5643 5643 5643 5644 5647 5649 5650 5650 5649 5647 5644 5640 5638 5638 5638 5639 5640 5639 5638 5638 5641 5641 5641 5640 5640 5637 5636 5637 5638 5639
5633 5636 5638 5640 5642 5644 5639 5634 5634 5636 5636 5636 5635 5635 5634 5634 5633 5634 5636 5638 5640 5640 5638 5636 5633 5632 5630 5631 5632 5633 5632 5632 5631 5633 5636 5636 5638 5636 5635 5633 5629 5630 5632
5617 5621 5626 5629 5632 5633 5628 5626 5624 5628 5630 5629 5628 5627 5628 5626 5625 5625 5624 5625 5626 5627 5629 5629 5626 5624 5622 5623 5624 5624 5626 5628 5626 5627 5630 5629 5631 5630 5629 5622 5622 5623 5625
5599 5605 5611 5617 5621 5623 5619 5617 5617 5621 5623 5622 5621 5620 5619 5617 5617 5617 5617 5615 5614 5614 5616 5618 5617 5616 5615 5616 5617 5619 5618 5617 5617 5619 5623 5623 5625 5625 5625 5620 5617 5618 5619
5581 5589 5596 5603 5609 5612 5610 5609 5609 5615 5616 5614 5613 5613 5612 5610 5605 5606 5608 5605 5603 5602 5602 5604 5604 5604 5604 5606 5609 5612 5612 5614 5613 5613 5617 5619 5619 5620 5620 5619 5615 5613 5613
5564 5572 5581 5589 5596 5603 5602 5601 5601 5609 5609 5607 5605 5604 5601 5601 5595 5597 5600 5598 5596 5595 5595 5595 5594 5595 5597 5598 5601 5606 5610 5612 5610 5608 5608 5613 5614 5616 5614 5614 5614 5613 5611